sat.trackr.live / text

‹ back to catalog

STARLINK-1654

NORAD 46326 · 2020-062B

PAYLOAD ACTIVE UNKNOWN

§ Identity

Operator
Country
US
Launch date
2020-09-03
Launch site
AFETR
Launch vehicle
Mass (kg)
RCS (m²)

Purposes: comms

External: N2YO · Heavens-Above · Gunter

§ Orbital elements

Epoch: 2026-06-15T13:56:27.798720Z

Period
88.04 min
Inclination
53.0183°
Eccentricity
0.0007138
Mean motion
16.35644660 rev/d
Perigee alt
172.7 km
Apogee alt
182.1 km
Semi-major
6,555.6 km
B*
8.0525e-4
RAAN
198.6201°
Arg perigee
294.2691°
Mean anomaly
65.7607°
Rev number
32,044

§ Raw data

STARLINK-16541 46326U 20062B   26166.58087730  .06741012  12281-4  80525-3 0  99922 46326  53.0183 198.6201 0007138 294.2691  65.7607 16.35644660320447

JSON: /api/v1/satellites/46326 · /tle

For live sub-satellite position, see the globe view (requires WebGL).

§ Visibility from observer

Set your observer location to see the next 7 days of passes ≥ 10°. The values pass through the URL so the page stays shareable.

No JS? Fill the form by hand. The geolocation button needs JavaScript.